Location: Odiham
(51.2500°N, 0.9333°W)
Time: 06:50:56
(UTC+00:00)

Daily predictions for brighter satellites

Satellite Brightness Start Highest point End
(mag) Time Altitude Azimuth Time Altitude Azimuth Time Altitude Azimuth
Cosmos 1500 Rocket 3.6 20:11:10 10° S 20:15:29 87° W 20:19:51 10° N
Spot 2 Rocket 4.2 20:12:23 10° SE 20:17:08 40° ENE 20:21:53 10° N
Cosmos 2322 Rocket 4.1 20:14:00 10° NNW 20:18:02 19° NNE 20:22:05 10° ENE
Meteor 1-4 Rocket 3.6 20:16:07 10° N 20:19:10 27° ENE 20:22:12 10° SE
Ariane Rocket 4.3 20:14:34 10° SSW 20:19:19 41° W 20:24:07 10° NNW
USA 186 4.0 20:19:14 10° SW 20:20:35 14° W 20:21:56 10° WNW
Resurs 1-3 3.8 20:16:17 10° S 20:20:41 77° WSW 20:25:06 10° NNW
CZ-2C R/B 2.7 20:18:14 10° NNE 20:23:26 84° WNW 20:28:38 10° SSW
Terra 3.6 20:22:01 10° E 20:25:19 19° ENE 20:28:38 10° NNE
Cosmos 407 Rocket 4.1 20:20:47 10° S 20:25:39 38° ESE 20:30:31 10° NE
USA 234 3.4 20:19:32 10° ESE 20:26:05 84° NNE 20:32:39 10° WNW
Cosmos 1666 Rocket 4.3 20:23:06 10° SSE 20:26:58 33° E 20:30:52 10° NNE
Meteor 1-27 Rocket 3.9 20:24:01 10° N 20:29:55 69° ENE 20:35:50 10° SSE
Meteor 1-10 Rocket 4.4 20:24:49 10° NNW 20:30:29 80° W 20:36:14 10° S
Cosmos 2360 Rocket 4.4 20:28:26 10° N 20:31:57 16° NNE 20:35:27 10° ENE
MetOp-B 4.2 20:26:43 10° SSE 20:32:02 67° ENE 20:37:22 10° N
BREEZE-M DEB (TANK) 4.2 20:31:19 10° W 20:35:44 20° SW 20:38:12 10° S
ERBS 2.6 20:33:15 10° WSW 20:36:34 70° NNW 20:39:53 10° ENE
Cosmos 1805 Rocket 3.6 20:34:10 10° S 20:38:36 82° E 20:43:06 10° NNE
SPOT 5 3.8 20:35:54 11° ESE 20:39:26 27° ENE 20:43:08 10° N
Cosmos 1980 Rocket 2.4 20:36:18 10° NNW 20:41:58 61° NE 20:47:05 12° SE
SPOT 1/Viking Rocket 3.8 20:39:53 10° SE 20:44:56 55° ENE 20:50:03 10° N
SL-4 R/B 2.9 20:44:05 10° SSW 20:47:19 25° SE 20:50:23 10° E
Genesis I 3.4 20:43:42 10° NW 20:47:34 62° NE 20:50:44 15° SE
BREEZE-M DEB (TANK) 2.4 20:45:28 10° WSW 20:48:02 56° SSE 20:54:09 10° E
ATLAS 5 CENTAUR R/B 3.4 20:45:06 10° NW 20:50:24 40° WSW 20:56:28 10° S
Cosmos 405 Rocket 4.4 20:49:21 13° ESE 20:50:46 16° E 20:53:08 10° NE
Cosmos 1140 Rocket 3.8 20:46:16 10° S 20:51:15 47° ESE 20:56:17 10° NE
Cosmos 389 Rocket 3.8 20:50:24 10° NNW 20:53:36 37° W 20:56:48 10° SSW
Cosmos 1812 3.7 20:52:59 10° NNW 20:56:42 46° W 21:00:22 10° SSW
Cosmos 1697 Rocket 3.0 20:52:07 10° NW 20:57:42 66° WSW 21:03:04 11° SSE
USA 32 4.5 20:53:02 11° SSE 20:57:47 43° E 21:02:44 10° NNE
Cosmos 1633 Rocket 3.2 20:55:49 10° S 21:00:10 58° E 21:04:31 10° NNE
Cosmos 1833 Rocket 2.6 20:54:40 10° SSW 21:00:15 70° ESE 21:05:52 10° NNE
Okean 1-7 4.3 21:02:25 10° N 21:06:05 26° ENE 21:08:30 16° ESE
Cosmos 1867 4.1 21:01:36 10° S 21:06:32 36° ESE 21:11:30 10° NE
CENTAUR R/B 3.7 21:04:46 16° SE 21:07:07 19° ESE 21:11:40 10° ENE
Cosmos 1707 Rocket 4.0 21:03:57 10° NNW 21:08:15 59° W 21:12:30 10° S
Resurs 01 Rocket 2.9 21:06:42 10° SSW 21:10:49 38° W 21:14:58 10° NNW
FALCON 9 DEB 4.1 21:10:05 10° SSW 21:13:04 27° SE 21:15:21 14° E
Landsat 7 4.0 21:08:59 12° S 21:13:27 76° WSW 21:18:15 10° NNW
Cosmos 1441 Rocket 4.2 21:11:10 10° SSW 21:14:49 46° WNW 21:18:29 10° N
deb Kosmos-1763 4.2 21:14:15 12° S 21:17:30 51° ESE 21:21:04 10° NNE
Cosmos 192 4.3 21:14:32 10° NNW 21:19:29 88° ENE 21:22:57 20° SSE
ATLAS 5 CENTAUR R/B 2.9 21:17:39 10° NNW 21:19:44 28° NE 21:23:25 11° E
Cosmos 676 Rocket 4.2 21:14:58 10° S 21:20:08 53° ESE 21:25:20 10° NNE
IGS 5A 3.9 21:17:34 12° S 21:21:15 59° W 21:25:22 10° NNW
Meteor 1-25 Rocket 4.4 21:17:53 13° S 21:22:39 55° E 21:28:08 10° NNE
Cosmos 1470 Rocket 3.7 21:19:30 16° S 21:22:53 57° E 21:27:12 10° NNE
Cosmos 1934 Rocket 4.1 21:18:34 10° S 21:24:57 89° W 21:31:22 10° N
Aureole 1 Rocket 4.4 21:19:11 10° S 21:26:01 71° ESE 21:34:19 10° NNE
GP-B 3.2 21:22:15 10° N 21:26:43 81° W 21:30:41 13° S
SWAS 4.4 21:23:26 10° SSW 21:27:45 89° WNW 21:32:08 10° NNE
USA 267 3.2 21:25:41 10° ENE 21:32:16 82° SSE 21:38:50 10° WSW
NOSS 3-2 (A) 3.7 21:27:08 10° S 21:32:30 43° ESE 21:38:37 10° NE
Cosmos 921 Rocket 2.9 21:28:15 10° NNW 21:32:31 85° ENE 21:34:51 26° SSE
Cosmos 1862 Rocket 3.9 21:30:23 10° NNW 21:34:49 64° W 21:38:11 17° S
NOSS 3-2 (C) 4.1 21:35:51 21° SSE 21:38:37 31° ESE 21:44:10 10° NE
COSMOS 2406 4.2 21:33:12 10° SW 21:38:48 51° NW 21:44:24 10° NNE
Cosmos 841 Rocket 4.4 21:34:05 10° NNW 21:38:56 37° NE 21:42:00 20° ESE
ERS-1 Rocket 3.0 21:36:08 20° S 21:39:41 79° WSW 21:44:45 10° NNW
OPS 6432 4.4 21:36:14 10° SSW 21:40:14 63° SE 21:43:22 10° NE
SAR-Lupe-2 3.5 21:36:41 10° NNE 21:40:15 62° ESE 21:41:56 29° S
Cosmos 540 Rocket 4.4 21:35:35 10° NNW 21:40:23 37° NE 21:43:22 20° ESE
SL-16 R/B 2.6 21:35:13 10° NNW 21:40:50 56° NE 21:44:17 23° SE
Lacrosse 5 1.9 21:37:06 10° WNW 21:42:13 78° NNE 21:45:31 22° ESE
Cosmos 468 Rocket 4.1 21:37:24 10° NNW 21:42:45 73° ENE 21:45:45 26° SE
NOSS 2 (A) 4.4 21:48:04 10° NW 21:50:40 51° SW 21:50:43 51° SW
Cosmos 2219 Rocket 4.2 21:47:08 10° NNW 21:51:18 20° NE 21:55:27 10° E
Cosmos 1954 Rocket 4.0 21:48:05 10° SSW 21:53:26 90° W 21:58:48 10° NNE
Cosmos 2082 Rocket 2.3 21:47:47 10° SSW 21:53:29 81° WNW 21:59:13 10° NNE
Cosmos 1184 Rocket 3.7 21:53:56 16° SW 21:56:23 47° WNW 21:59:37 10° N
CARTOSAT-1 4.2 21:57:12 21° SSW 21:59:48 49° W 22:04:01 10° NNW
Terra 1.9 22:00:02 28° S 22:02:33 76° WSW 22:07:21 10° NNW
Cosmos 2322 Rocket 2.4 21:57:33 10° NNW 22:03:14 65° NE 22:06:13 29° SE
Cosmos 1933 Rocket 3.6 22:01:23 23° SSW 22:04:06 81° WNW 22:08:34 10° N
Okean 1 3.7 22:01:18 10° NNW 22:05:18 61° W 22:07:07 30° SSW
Cosmos 1238 Rocket 3.0 22:06:54 27° SW 22:08:09 45° WNW 22:11:01 10° N
Cosmos 1602 3.8 22:06:47 29° SSW 22:08:42 76° W 22:12:40 10° N
Cosmos 2100 Rocket 4.1 22:05:35 28° SSE 22:08:44 57° E 22:14:44 10° NNE
USA 234 3.9 22:06:06 24° S 22:09:31 41° SW 22:15:39 10° WNW
Cosmos 1437 Rocket 2.7 22:05:51 10° NNW 22:09:41 77° W 22:10:50 43° S
Cosmos 1242 Rocket 4.4 22:08:50 10° NNE 22:11:28 19° ENE 22:12:07 18° E
Cosmos 1605 Rocket 4.3 22:05:45 10° SSW 22:11:50 64° WNW 22:17:54 10° N
ERBS 4.2 22:10:15 10° WNW 22:13:14 30° N 22:16:13 10° ENE
Cosmos 1869 Rocket 3.7 22:13:01 40° SSE 22:14:16 55° E 22:18:38 10° NNE
Cosmos 2360 Rocket 2.8 22:11:50 10° NNW 22:17:23 50° NE 22:20:19 26° ESE
SPOT 5 3.6 22:15:08 22° SSW 22:17:25 39° W 22:21:32 10° NNW
COSMOS 2428 4.5 22:13:16 10° NNW 22:17:58 25° NE 22:22:37 10° E
MTI 4.1 22:15:45 10° NNE 22:18:29 48° ENE 22:18:29 48° ENE
JB-3 4.2 22:15:34 10° NNE 22:19:34 76° ESE 22:20:44 45° S
ATLAS 3B R/B 3.6 22:21:12 25° ESE 22:21:45 25° ESE 22:27:00 10° ENE
Cosmos 1703 Rocket 4.0 22:18:13 10° NNW 22:22:30 56° W 22:24:15 32° SSW
Cosmos 2242 Rocket 4.5 22:18:34 10° NNW 22:22:47 42° W 22:24:58 24° SSW
Geosat 4.0 22:20:48 36° SE 22:22:56 81° ENE 22:27:59 10° NNW
Iridium 4 Rocket 3.1 22:21:45 44° SSE 22:22:57 65° E 22:27:08 10° N
Cosmos 2173 Rocket 4.0 22:21:11 31° S 22:24:17 68° E 22:30:22 10° NNE
Cosmos 1980 Rocket 3.7 22:20:52 10° NW 22:25:35 28° WSW 22:28:51 16° SSW
Cosmos 1500 3.1 22:25:10 58° SE 22:25:37 65° E 22:29:21 10° NNE
Cosmos 405 Rocket 3.5 22:24:29 24° SW 22:26:24 46° WNW 22:30:01 10° N
SL-4 R/B 1.5 22:22:46 10° WSW 22:26:34 73° SSE 22:27:13 55° E
USA 238 DEB 3.6 22:21:42 10° SW 22:28:22 84° SE 22:35:22 10° NE
USA 238 3.6 22:21:49 10° SW 22:28:29 84° SE 22:35:29 10° NE
Cosmos 1763 Rocket 3.8 22:23:42 10° NNW 22:28:57 59° WSW 22:31:09 33° S
ALOS 2 3.9 22:27:44 25° E 22:29:05 30° ENE 22:32:55 10° N
Cosmos 1725 Rocket 4.5 22:27:19 31° SE 22:29:42 45° E 22:35:40 10° NNE
Meteor 1-14 Rocket 4.4 22:29:24 22° SSW 22:33:20 75° WNW 22:39:19 10° N
Cosmos 1536 3.7 22:34:40 33° E 22:34:40 33° E 22:38:15 10° NNE
Cosmos 1666 3.3 22:37:32 39° E 22:37:32 39° E 22:40:56 10° NNE
Cosmos 2333 Rocket 3.4 22:32:26 10° NNW 22:37:43 35° NE 22:41:19 18° E
Cosmos 1271 Rocket 4.4 22:37:17 10° NNE 22:40:12 21° ENE 22:40:47 20° ENE
Cosmos 1356 4.5 22:41:30 33° ENE 22:41:30 33° ENE 22:44:05 10° NNE
Meteor 1-13 Rocket 4.1 22:35:46 10° NNW 22:41:21 83° ENE 22:43:23 41° SSE
Cosmos 2237 Rocket 4.4 22:37:24 10° NNW 22:41:22 19° NNE 22:45:18 10° ENE
Cosmos 2016 Rocket 4.1 22:39:51 36° SSE 22:42:31 65° E 22:48:50 10° NNE
Meteor 1-5 Rocket 4.3 22:40:38 35° S 22:43:18 77° E 22:49:15 10° NNE
Lacrosse 4 Rocket 3.7 22:45:23 12° E 22:45:23 12° E 22:46:10 10° ENE
Okean 1-7 4.0 22:39:45 10° NNW 22:43:47 38° W 22:45:21 28° SW
Cosmos 2061 Rocket 4.0 22:41:23 36° SSE 22:43:54 65° E 22:50:03 10° NNE
MOS 1-B Rocket 3.8 22:38:53 10° NNE 22:44:37 68° ESE 22:46:43 39° S
Cosmos 2221 Rocket 3.5 22:41:00 10° N 22:45:29 81° E 22:46:29 54° SSE
Cosmos 1459 Rocket 4.0 22:42:36 30° S 22:45:54 88° W 22:52:20 10° N
Okean 3 3.5 22:45:21 10° NNW 22:49:39 76° W 22:50:31 55° SSW
FALCON 9 DEB 3.8 22:46:20 10° WSW 22:48:49 44° WSW 22:48:49 44° WSW
Cosmos 1867 4.3 22:44:39 10° WSW 22:49:59 54° NW 22:55:23 10° NE
Cosmos 1733 Rocket 3.5 22:50:59 43° ESE 22:51:21 44° E 22:55:33 10° NNE
Cosmos 1066 Rocket 4.4 22:46:06 10° N 22:51:49 62° ENE 22:53:46 40° SE
SL-27 R/B 2.4 22:53:08 76° NNW 22:53:08 76° NNW 22:56:17 10° NNE
Meteor 1-23 Rocket 4.5 22:47:49 10° N 22:53:38 63° ENE 22:55:42 39° SE
Cosmos 1864 Rocket 4.5 22:53:22 39° SSE 22:55:42 68° E 23:01:55 10° NNE
Thor Agena Rocket 3.6 22:50:48 10° NNE 22:55:50 59° ESE 22:57:00 47° SSE
CENTAUR R/B 2.5 22:51:50 19° SW 22:56:31 81° SE 23:03:49 10° NE
Cosmos 1850 Rocket 4.3 22:54:34 23° SW 22:57:51 67° WNW 23:03:08 10° NNE
Meteor 2-4 Rocket 4.3 22:53:09 10° NNW 22:58:38 49° W 23:00:58 31° SSW
Cosmos 967 Rocket 4.4 22:52:16 10° NW 22:58:40 76° SW 23:01:03 41° SSE
Cosmos 44 3.4 22:55:40 10° NW 23:00:30 63° SW 23:01:33 50° S
Cosmos 1802 Rocket 4.0 22:58:41 33° SSW 23:01:48 83° W 23:08:14 10° N
Spot 4 3.9 23:06:33 51° SSW 23:07:42 71° WSW 23:12:32 10° NNW
Cosmos 1378 3.6 23:08:51 10° N 23:12:29 51° ENE 23:12:29 51° ENE
USA 267 3.8 23:08:46 10° ENE 23:15:10 59° NNW 23:21:35 10° W
Cosmos 2233 Rocket 4.1 23:14:31 42° SSE 23:16:36 63° E 23:22:51 10° NNE
Cosmos 1908 Rocket 4.5 23:18:33 34° E 23:18:39 34° E 23:22:37 10° NNE
Cosmos 841 Rocket 4.2 23:16:00 10° NW 23:20:53 41° WSW 23:22:05 35° SW
Cosmos 540 Rocket 4.2 23:17:13 10° NW 23:22:03 41° WSW 23:23:10 36° SW
NOSS 3-2 (A) 4.1 23:17:23 10° WSW 23:23:13 56° NW 23:30:01 10° NE
SL-16 R/B 3.3 23:19:45 10° NW 23:24:40 31° WSW 23:26:08 27° SW
Lacrosse 5 2.8 23:20:23 10° WNW 23:24:41 32° SW 23:24:41 32° SW
Cosmos 2322 3.7 23:22:04 10° NNW 23:27:47 83° ENE 23:29:31 47° SE
Cosmos 1378 Rocket 3.4 23:23:50 10° N 23:28:20 82° ENE 23:28:49 70° SSE
NOSS 3-2 (C) 3.7 23:23:10 10° SW 23:28:58 69° NW 23:35:49 10° NE
Cosmos 1833 4.2 23:28:44 50° SSE 23:29:53 61° ESE 23:35:28 10° NE
COSMOS 2487 3.5 23:32:14 38° NE 23:32:14 38° NE 23:34:38 10° NNE
GENESIS II 4.4 23:30:19 10° NW 23:34:19 65° NE 23:34:38 62° ENE
Cosmos 2084 Rocket 3.4 23:35:29 59° WSW 23:36:14 78° NW 23:40:35 10° NE
Cosmos 2219 Rocket 2.3 23:30:37 10° NNW 23:36:19 70° ENE 23:38:19 41° SE
Tsikada Rocket 4.3 23:31:14 10° NNW 23:37:31 61° W 23:39:45 39° SSW
EO 1 Del DPAF 3.5 23:36:04 10° N 23:39:47 59° WNW 23:39:56 58° W
Terra 4.3 23:39:44 10° WSW 23:41:08 11° W 23:42:34 10° WNW
Cosmos 1975 Rocket 3.8 23:37:23 10° N 23:41:41 42° ENE 23:42:25 39° E
Cosmos 2333 4.2 23:36:22 10° NNW 23:42:12 81° WSW 23:43:44 51° SSE
Cosmos 1242 Rocket 3.5 23:43:07 10° NNW 23:46:08 38° WNW 23:46:08 38° WNW
Cosmos 2322 Rocket 3.5 23:42:15 10° NW 23:46:52 26° WSW 23:48:01 24° WSW
YAOGAN 11 4.4 23:48:26 52° ESE 23:49:14 61° ENE 23:53:47 10° N
ERBS 3.7 23:46:59 10° NW 23:50:06 36° NNE 23:51:02 29° NE
Helios 1A 2.9 23:49:48 68° ESE 23:50:07 72° ENE 23:54:21 10° N
SL-16 R/B 4.4 23:47:20 10° NNW 23:51:44 22° NE 23:56:07 10° E
SL-16 R/B 4.5 23:47:24 10° E 23:52:06 23° NE 23:56:47 10° N
Cosmos 1486 Rocket 3.9 23:52:11 58° SSE 23:52:59 68° ESE 23:58:11 10° NNE
Meteor 1-11 Rocket 4.4 23:51:38 30° SW 23:54:04 48° WNW 23:59:39 10° N
Cosmos 1544 3.7 23:54:38 48° ENE 23:54:38 48° ENE 23:57:42 10° NNE
